Location: Владивосток
(43.1151°N, 131.8856°E)
Time: 15:10:19
(UTC+10:00)

PRISM - Visible Passes

Search period start: 16 April 2024 00:00
Search period end: 26 April 2024 00:00
Orbit: 508 x 528 km, 98.2° (Epoch: 15 April)

Date Brightness Start Highest point End Pass type
(mag) Time Alt. Az. Time Alt. Az. Time Alt. Az.
16 Apr ? 21:38:02 10° SSW 21:41:17 28° W 21:44:33 10° NW visible
17 Apr ? 21:23:36 10° S 21:27:10 41° W 21:30:44 10° NNW visible
18 Apr ? 21:09:19 10° S 21:13:02 64° WSW 21:16:45 10° NNW visible
19 Apr ? 20:55:07 10° SSE 20:58:51 83° ENE 21:02:37 10° NNW visible
20 Apr ? 20:41:02 10° SSE 20:44:41 53° ENE 20:48:20 10° N visible
20 Apr ? 22:18:05 10° WSW 22:19:01 11° W 22:19:56 10° WNW visible
21 Apr ? 20:27:03 10° SE 20:30:28 35° ENE 20:33:54 10° N visible
21 Apr ? 22:02:15 10° SW 22:04:37 16° W 22:06:59 10° NW visible
22 Apr ? 21:47:09 10° SSW 21:50:11 23° W 21:53:14 10° NW visible
23 Apr ? 21:32:20 10° SSW 21:35:46 34° W 21:39:13 10° NNW visible
24 Apr ? 21:17:39 10° S 21:21:19 53° W 21:24:58 10° NNW visible
25 Apr ? 21:03:06 10° SSE 21:06:50 84° WSW 21:10:35 10° NNW visible
